Location: Demmingen
(48.6757°N, 10.4375°E)
Time: 03:34:08
(UTC+00:00)

Cosmos 2333 - Pass Details

Date: 23 May 2024
Orbit: 828 x 866 km, 70.9° (Epoch: 19 June)

Event Time Altitude Azimuth Distance (km) Brightness Sun altitude
Rises 01:42:39 0° 332° (NNW) 3,424 7.7 -13.3°
Reaches altitude 10° 01:45:06 10° 334° (NNW) 2,490 7.0 -13.0°
Maximum altitude 01:50:51 78° 61° (ENE) 882 4.4 -12.5°
Drops below altitude 10° 01:56:36 10° 148° (SSE) 2,496 6.5 -11.9°
Sets 01:59:04 0° 149° (SSE) 3,432 7.2 -11.6°
